Location: Franzen
(48.6167°N, 15.3833°E)
Time: 06:30:03
(UTC+00:00)

Altair - Pass Details

Date: 12 August 2021
Orbit: 1501 x 1682 km, 47.2° (Epoch: 21 September)

Event Time Altitude Azimuth Distance (km) Brightness Sun altitude
Rises 22:58:50 0° 250° (WSW) 4,814 9.9 -26.7°
Reaches altitude 10° 23:01:59 10° 249° (WSW) 3,805 9.4 -26.7°
Maximum altitude 23:11:35 77° 166° (SSE) 1,590 7.3 -26.7°
Drops below altitude 10° 23:20:52 10° 83° (E) 3,682 9.6 -26.6°
Sets 23:23:51 0° 82° (E) 4,652 10.2 -26.6°
